カタログに戻る

KUIPER-00375

運用中通信LEO
NORAD 68868·PAYLOAD·🇺🇸 United States

打ち上げ Apr 28, 2026 から Cape Canaveral Space Force Station

Loading…

次のパス (今後24時間)

TLE

最新Source: CelesTrak SupGP

元期: Sep 14, 2026, 22:10 UTC

1 68868C 26095E   26257.92395833 -.00017785  00000+0 -23283-2 0  2578
2 68868  51.9000 201.3493 0000891  81.1795  87.8364 14.79944817    15

AllMySatでKUIPER-00375をリアルタイム追跡

Download on the App Store